EW4264 Weather Reports


time (UTC)temp
F
wind
direction
speed
knots
gust
knots
rain 1hr
in
rain 24hr
in
rain mn
in
humidity
%
barometer
mb
20181215063033 50 28 6.1 11.3 0.00 0.00 0.00 41 1022.2
20181215061535 50 24 6.1 11.3 0.00 0.00 0.00 42 1022.3
20181215054614 50 31 5.2 9.6 0.00 0.00 0.00 43 1022.2
20181215053013 50 57 6.1 13.9 0.00 0.00 0.00 44 1022.0
20181215051509 50 22 4.3 12.2 0.00 0.00 0.00 44 1021.9
20181215050019 51 53 6.1 12.2 0.00 0.00 0.00 45 1021.8
20181215044502 51 32 4.3 11.3 0.00 0.00 0.00 45 1021.8
20181215043003 51 360 2.6 10.4 0.00 0.00 0.00 46 1021.8
20181215041649 52 13 7.8 15.6 0.00 0.00 0.00 46 1021.6
20181215040242 52 11 4.3 13.0 0.00 0.00 0.00 47 1021.4
20181215040032 52 15 5.2 13.0 0.00 0.00 0.00 47 1021.4
20181215034749 52 32 7.0 12.2 0.00 0.00 0.00 49 1021.4
20181215031519 51 26 7.8 14.8 0.00 0.00 0.00 53 1021.3
20181215030021 51 9 7.8 13.9 0.00 0.00 0.00 54 1021.2
20181215024523 51 13 6.1 10.4 0.00 0.00 0.00 56 1021.1
20181215023020 51 37 4.3 10.4 0.00 0.00 0.00 58 1020.9
20181215021536 51 5 3.5 8.7 0.00 0.00 0.00 57 1020.8
20181215020033 52 50 5.2 10.4 0.00 0.00 0.00 57 1021.3
20181215014513 52 28 5.2 10.4 0.00 0.00 0.00 59 1021.3
20181215013025 52 23 7.0 13.9 0.00 0.00 0.00 58 1021.2
20181215011513 52 65 6.1 13.0 0.00 0.00 0.00 58 1021.0
20181215010010 52 360 3.5 13.0 0.00 0.00 0.00 59 1021.1
20181215004512 52 29 6.1 13.0 0.00 0.00 0.00 59 1020.9
20181215003012 52 5 7.0 12.2 0.00 0.00 0.00 60 1020.7
20181215001801 52 59 6.1 13.9 0.00 0.00 0.00 61 1020.4
20181215000220 52 42 6.1 14.8 0.00 0.00 0.00 61 1020.3
20181214234633 52 110 4.3 16.5 0.00 0.00 0.00 61 1020.4
20181214233200 52 56 6.1 14.8 0.00 0.00 0.00 61 1020.3
20181214231636 52 355 7.0 14.8 0.00 0.00 0.00 62 1019.9
20181214230143 52 50 9.6 17.4 0.00 0.00 0.00 63 1019.8
20181214224626 52 28 9.6 18.2 0.00 0.00 0.00 63 1019.7
20181214223148 52 43 7.0 18.2 0.00 0.00 0.00 64 1019.4
20181214221649 52 348 10.4 22.6 0.00 0.00 0.00 64 1019.0
20181214220132 51 32 10.4 17.4 0.00 0.00 0.00 65 1018.8
20181214214628 52 30 8.7 19.1 0.00 0.00 0.00 64 1018.9
20181214213128 50 18 7.0 18.2 0.00 0.00 0.00 66 1018.8
20181214211600 49 22 12.2 16.5 0.00 0.00 0.00 67 1018.6
20181214210057 48 20 12.2 21.7 0.00 0.00 0.00 69 1018.7
20181214204610 48 28 9.6 20.9 0.00 0.00 0.00 67 1018.6
20181214203054 48 36 9.6 22.6 0.00 0.00 0.00 68 1018.6
20181214201612 48 49 13.0 20.0 0.00 0.00 0.00 67 1018.4
20181214200052 47 35 10.4 20.0 0.00 0.00 0.00 70 1018.3
20181214194526 46 31 9.6 15.6 0.00 0.00 0.00 74 1018.4
20181214193027 46 13 8.7 15.6 0.00 0.00 0.00 75 1018.6
20181214191554 46 37 8.7 14.8 0.00 0.00 0.00 74 1018.5
20181214190030 46 5 9.6 19.1 0.00 0.00 0.00 74 1018.7
20181214184515 45 26 8.7 17.4 0.00 0.00 0.00 75 1018.9
20181214183044 45 360 8.7 20.0 0.00 0.00 0.00 75 1019.0
20181214181518 45 36 7.8 20.9 0.00 0.00 0.00 75 1019.0
20181214180040 45 39 11.3 18.2 0.00 0.00 0.00 75 1019.0
20181214174504 45 20 9.6 22.6 0.00 0.00 0.00 76 1019.0
20181214173002 45 44 6.1 15.6 0.00 0.00 0.00 77 1019.1
20181214171729 44 47 8.7 20.0 0.00 0.00 0.00 77 1019.1
20181214170125 44 57 7.8 15.6 0.00 0.00 0.00 78 1019.2
20181214164629 44 44 8.7 16.5 0.00 0.00 0.00 79 1019.4
20181214163208 44 52 7.0 18.2 0.00 0.00 0.00 79 1019.3
20181214161702 44 26 8.7 15.6 0.00 0.00 0.00 79 1018.9
20181214160153 43 38 9.6 16.5 0.00 0.00 0.00 79 1018.3
20181214154638 43 32 11.3 20.0 0.00 0.00 0.00 79 1017.8
20181214153112 42 51 8.7 17.4 0.00 0.00 0.00 80 1017.9
20181214151611 42 58 10.4 16.5 0.00 0.00 0.00 80 1017.9
20181214150121 42 10 7.8 18.2 0.00 0.00 0.00 80 1017.8
20181214144703 42 47 6.1 17.4 0.00 0.00 0.00 80 1017.8
20181214143046 42 27 9.6 15.6 0.00 0.00 0.00 80 1017.6
20181214141644 42 5 7.0 15.6 0.00 0.00 0.00 81 1017.6
20181214140125 41 28 10.4 19.1 0.00 0.00 0.00 81 1017.3
20181214134549 41 18 9.6 16.5 0.00 0.00 0.00 81 1017.0
20181214133140 41 13 7.8 17.4 0.00 0.00 0.00 81 1016.7
20181214131645 41 38 10.4 18.2 0.00 0.00 0.00 81 1016.7
20181214130056 40 61 10.4 20.0 0.00 0.00 0.00 81 1016.5
20181214124532 41 35 8.7 14.8 0.00 0.00 0.00 81 1016.4
20181214123046 41 53 10.4 20.0 0.00 0.00 0.00 80 1016.2
20181214121534 41 36 7.8 19.1 0.00 0.00 0.00 80 1016.0
20181214120031 41 5 13.9 20.0 0.00 0.00 0.00 79 1015.5
20181214114525 41 43 13.0 23.5 0.00 0.00 0.00 79 1015.3
20181214113016 41 360 8.7 22.6 0.00 0.00 0.00 79 1015.2
20181214111516 41 59 8.7 18.2 0.00 0.00 0.00 78 1015.1
20181214110008 42 22 10.4 23.5 0.00 0.00 0.00 78 1015.0
20181214104506 42 21 9.6 21.7 0.00 0.00 0.00 78 1014.8
20181214103003 42 28 11.3 18.2 0.00 0.00 0.00 79 1014.6
20181214101653 42 65 11.3 19.1 0.00 0.00 0.00 80 1014.4
20181214100255 42 5 11.3 20.9 0.00 0.00 0.00 81 1014.1
20181214094609 41 42 13.0 26.1 0.00 0.00 0.00 82 1014.0
20181214093119 41 360 10.4 19.1 0.00 0.00 0.00 83 1013.8
20181214091607 41 58 9.6 18.2 0.00 0.00 0.00 82 1013.6
20181214090110 42 10 11.3 19.1 0.00 0.00 0.00 82 1013.4
20181214084612 42 15 10.4 24.3 0.00 0.00 0.00 81 1013.3
20181214083054 42 26 9.6 20.9 0.00 0.00 0.00 81 1013.1
20181214081607 41 5 16.5 25.2 0.00 0.00 0.00 82 1013.0
20181214080102 42 42 11.3 21.7 0.00 0.00 0.00 80 1012.8
20181214074550 42 46 8.7 22.6 0.00 0.00 0.00 80 1012.8
20181214073142 43 24 10.4 23.5 0.00 0.00 0.00 80 1012.6
20181214071544 43 27 12.2 20.0 0.00 0.00 0.00 80 1012.6
20181214070040 42 28 9.6 20.0 0.00 0.00 0.00 81 1012.7
20181214064609 42 15 10.4 19.1 0.00 0.00 0.00 82 1012.7